Hourly Data Report for August 16, 2015

All times are specified in Local Standard Time (LST). Add 1 hour to adjust for Daylight Saving Time where and when it is observed.

TORONTO INTL A
ONTARIO

43°40'36.000" N
79°37'50.000" W
173.40 m
6158731
71624
YYZ

Download Data

Hourly Data (August 2015)
Hourly Data Report for August 16, 2015
Temp Definition
°C
Dew Point Temp Definition
°C
Rel Hum Definition
%
Wind Dir Definition
10's deg

Wind Spd Definition
km/h
Visibility Definition
km
Stn Press Definition
kPa
Hmdx Definition


Wind Chill Definition


Weather Definition


TIME
00:00 Legend Double Dagger 22.1 17.3 74 34 7 24.1 99.93 28   LegendNANA
01:00 Legend Double Dagger 22.0 16.8 72 34 16 24.1 99.94 27   Clear
02:00 Legend Double Dagger 21.0 16.9 77 35 7 24.1 99.91 26   LegendNANA
03:00 Legend Double Dagger 20.5 16.8 79 31 9 24.1 99.90 26   LegendNANA
04:00 Legend Double Dagger 20.2 16.5 79 31 7 24.1 99.86 25   Clear
05:00 Legend Double Dagger 19.7 16.4 81 28 8 24.1 99.86     LegendNANA
06:00 Legend Double Dagger 19.5 16.8 84 28 7 24.1 99.92     LegendNANA
07:00 Legend Double Dagger 22.0 17.4 75 25 5 24.1 99.94 28   Mainly Clear
08:00 Legend Double Dagger 24.6 18.2 67 25 8 24.1 99.94 31   LegendNANA
09:00 Legend Double Dagger 26.6 19.1 63 25 13 24.1 99.98 33   LegendNANA
10:00 Legend Double Dagger 27.8 19.5 60 26 21 24.1 100.02 35   Mostly Cloudy
11:00 Legend Double Dagger 28.5 18.2 53 26 17 24.1 100.01 35   LegendNANA
12:00 Legend Double Dagger 29.4 18.1 50 27 18 24.1 99.93 35   LegendNANA
13:00 Legend Double Dagger 30.1 18.4 49 24 19 24.1 99.86 36   Mostly Cloudy
14:00 Legend Double Dagger 30.3 19.0 50 20 9 24.1 99.77 37   LegendNANA
15:00 Legend Double Dagger 30.4 19.4 51 20 14 24.1 99.70 37   LegendNANA
16:00 Legend Double Dagger 30.0 18.7 50 16 19 24.1 99.67 37   Mostly Cloudy
17:00 Legend Double Dagger 28.7 18.4 53 15 18 24.1 99.67 35   LegendNANA
18:00 Legend Double Dagger 28.5 19.3 57 18 14 24.1 99.66 36   LegendNANA
19:00 Legend Double Dagger 27.5 19.2 60 19 9 24.1 99.65 34   Mainly Clear
20:00 Legend Double Dagger 27.2 20.2 65 22 17 24.1 99.67 35   LegendNANA
21:00 Legend Double Dagger 25.4 20.1 72 24 16 24.1 99.70 33   LegendNANA
22:00 Legend Double Dagger 24.0 19.6 76 24 13 24.1 99.70 31   Clear
23:00 Legend Double Dagger 23.0 19.4 80 24 14 24.1 99.70 30   LegendNANA

Notes on Data Quality.

Legend

  • E = Estimated
  • M = Missing
  • NA = Not Available
  • ‡ = Partner data that is not subject to review by the National Climate Archives
Date modified: